003  
ASUS43 KOAX 240510  
RWRNE  
 
WEATHER ROUNDUP FOR NEBRASKA  
NATIONAL WEATHER SERVICE OMAHA NE  
1100 PM CST TUE JAN 23 2018  
 
NOTES: SATELLITE DATA IS BEING USED TO AUGMENT CLOUD COVER ABOVE  
12000 FEET.  
"FAIR" INDICATES FEW OR NO CLOUDS BELOW 12,000 FEET WITH NO  
SIGNIFICANT WEATHER AND/OR S TO VISIBILITY
.  
 
 
NEZ001>004-019>022-054>056-240600-  
NEBRASKA PANHANDLE  
 
CITY SKY/WX TMP DP RH WIND PRES REMARKS
 
SCOTTSBLUFF CLEAR 13 8 81 CALM 30.24F  
ALLIANCE CLEAR 5 3 91 W5 30.23S WCI -4  
CHADRON CLEAR 13 8 81 CALM 30.23F  
GORDON FAIR 15 10 79 SW7 30.21S WCI 5  
KIMBALL CLEAR 12 7 79 CALM 30.24S  
SIDNEY CLEAR 14 9 80 W9 30.26S WCI 2  

 
 
NEZ057>060-069>072-079>082-240600-  
SOUTHWEST NEBRASKA  
 
CITY SKY/WX TMP DP RH WIND PRES REMARKS
 
NORTH PLATTE CLEAR 16 12 84 W7 30.28S WCI 6  
IMPERIAL CLEAR 20 14 77 W13 30.30R WCI 7  
LEXINGTON CLEAR 23 19 81 NW10 30.28R WCI 13  
MCCOOK CLEAR 23 17 78 SW9 30.30R WCI 13  
OGALLALA CLEAR 26 17 69 NW13 30.27R WCI 15  

 
 
NEZ005>010-023>029-035>040-094-240600-  
NORTH CENTRAL NEBRASKA  
 
CITY SKY/WX TMP DP RH WIND PRES REMARKS
 
VALENTINE CLEAR 23 16 74 W12 30.22S WCI 12  
AINSWORTH CLEAR 24 20 83 W9 30.22S WCI 14  
BROKEN BOW CLEAR 30 19 63 NW18 30.23S WCI 18  
O'NEILL CLEAR 28 23 84 NW6 30.21S WCI 21  
ORD CLEAR 30 21 69 W13 30.22S WCI 20  
THEDFORD CLEAR 22 17 81 W6 30.25R WCI 14  

 
 
NEZ041-046>049-061>064-073>077-083>087-240600-  
SOUTH CENTRAL NEBRASKA  
 
CITY SKY/WX TMP DP RH WIND PRES REMARKS
 
GRAND ISLAND CLEAR 27 23 85 W13 30.24R WCI 16  
AURORA CLEAR 28 24 85 W13 30.24R WCI 18  
HASTINGS CLEAR 28 23 81 W9 30.25R WCI 19  
HEBRON PTCLDY 32 28 85 W6 30.26S WCI 26  
HOLDREGE CLEAR 28 24 82 W8 30.27S WCI 20  
KEARNEY CLEAR 27 22 81 NW12 30.26S WCI 17  
YORK CLEAR 28 27 93 W10 30.23S WCI 19  

 
 
NEZ011>018-030>034-042>045-240600-  
NORTHEAST NEBRASKA  
 
CITY SKY/WX TMP DP RH WIND PRES REMARKS
 
ALBION CLEAR 30 23 76 NW9 30.21R WCI 21  
BLAIR CLEAR 21 20 94 CALM 30.20R FOG  
COLUMBUS CLEAR 14 12 92 W6 30.22S WCI 5  
FREMONT CLEAR 19 18 98 W3 30.21S FOG  
TEKAMAH CLEAR 15 14 95 SW6 30.22R FOG WCI 6  
WAYNE PTCLDY 12 11 96 CALM 30.20R  

 
 
NEZ050>053-065>068-078-088>093-240600-  
SOUTHEAST NEBRASKA  
 
CITY SKY/WX TMP DP RH WIND PRES REMARKS
 
LINCOLN CLEAR 26 22 84 W3 30.24R  
OMAHA EPPLEY CLEAR 20 18 92 S6 30.23R WCI 12  
BEATRICE CLEAR 31 28 90 W9 30.24S WCI 23  
FALLS CITY CLEAR 27 24 89 S5 30.23F WCI 22  
NEBRASKA CITY CLEAR 24 24 100 W8 30.22R WCI 15  
PLATTSMOUTH CLEAR 25 23 93 SW5 30.21S WCI 19  

 
 
NEZ044-045-051>053-067-240600-  
OMAHA AREA  
 
CITY SKY/WX TMP DP RH WIND PRES REMARKS
 
OMAHA EPPLEY CLEAR 20 18 92 S6 30.23R WCI 12  
BLAIR CLEAR 21 20 94 CALM 30.20R FOG  
FREMONT CLEAR 19 18 98 W3 30.21S FOG  
MILLARD N/A 21 19 92 CALM 30.23R FOG  
OFFUTT AFB CLEAR 18 16 91 CALM 30.22R  
PLATTSMOUTH CLEAR 25 23 93 SW5 30.21S WCI 19  
WAHOO FAIR 17 15 92 CALM 30.22R FOG  

 
 
 
CLICK HERE TO GO TO PREVIOUS BULLETINS.

The Nexlab NE Page Main Text Page